Total_Precipitation_Accumulation
1.29 1.44 1.71 2.10 2.51 2.97 3.07 3.08 3.21 3.42 3.56 3.67 3.67 3.52 3.18 2.99 2.81 2.56 2.40 2.34 2.25 2.27 2.33 2.09 1.88 1.81 1.74 1.69 1.65 1.60 1.45 1.21 1.14 1.07 0.83 0.60 0.50 0.46 0.41 0.38 0.36 0.33 0.32
1.27 1.39 1.59 1.84 2.08 2.52 2.86 2.92 3.01 3.12 3.20 3.26 3.46 3.57 3.43 3.12 2.97 2.86 2.66 2.46 2.37 2.31 2.36 2.41 2.23 1.97 1.90 1.89 1.86 1.76 1.61 1.46 1.35 1.25 1.16 0.97 0.76 0.57 0.48 0.45 0.42 0.38 0.37
1.20 1.33 1.45 1.72 1.90 2.23 2.63 2.82 2.95 3.09 3.06 3.21 3.64 3.85 3.85 3.52 3.19 2.97 2.86 2.70 2.50 2.43 2.35 2.29 2.32 2.21 2.06 2.00 2.01 2.02 1.97 1.82 1.64 1.48 1.50 1.28 0.99 0.75 0.60 0.53 0.52 0.52 0.49
1.08 1.17 1.23 1.52 1.75 1.95 2.26 2.52 2.85 3.11 3.23 3.30 3.49 3.54 3.34 3.15 2.85 2.76 2.73 2.74 2.70 2.51 2.42 2.39 2.36 2.31 2.20 2.08 2.09 2.16 2.17 2.15 2.00 1.80 1.61 1.42 1.17 1.07 0.86 0.66 0.63 0.68 0.70
1.02 1.17 1.21 1.31 1.46 1.76 2.02 2.18 2.43 2.75 3.03 3.17 3.33 3.46 3.27 2.99 2.85 2.81 2.78 2.72 2.71 2.62 2.50 2.42 2.42 2.41 2.32 2.23 2.20 2.21 2.21 2.20 2.16 2.03 1.84 1.68 1.42 1.20 1.11 0.91 0.78 0.79 0.77
1.02 1.12 1.13 1.20 1.29 1.52 1.85 1.98 2.15 2.39 2.71 2.93 3.12 3.33 3.21 2.94 2.67 2.61 2.63 2.58 2.56 2.48 2.39 2.39 2.35 2.33 2.29 2.18 2.14 2.16 2.16 2.15 2.07 1.96 1.83 1.73 1.59 1.39 1.31 1.18 0.97 0.95 0.89
0.94 1.01 1.06 1.20 1.27 1.41 1.57 1.67 1.76 1.92 2.24 2.53 2.71 2.93 3.03 2.97 2.73 2.45 2.40 2.36 2.30 2.22 2.15 2.18 2.21 2.23 2.21 2.18 2.12 2.08 2.00 2.03 2.05 1.92 1.76 1.63 1.44 1.35 1.42 1.42 1.24 1.08 0.95
0.91 0.93 0.96 1.09 1.22 1.33 1.35 1.36 1.45 1.60 1.75 1.94 2.15 2.33 2.44 2.61 2.65 2.50 2.30 2.21 2.10 2.03 2.02 2.04 2.09 2.14 2.20 2.18 2.17 2.10 1.98 1.93 1.91 1.88 1.78 1.69 1.52 1.37 1.34 1.39 1.47 1.41 1.18
0.82 0.88 0.97 1.03 1.08 1.17 1.19 1.19 1.26 1.38 1.45 1.62 1.77 1.99 2.04 2.08 2.20 2.24 2.24 2.19 2.04 1.93 1.95 2.04 2.03 1.99 1.98 1.97 2.02 2.04 1.90 1.78 1.74 1.70 1.70 1.66 1.55 1.47 1.39 1.37 1.51 1.75 1.70
0.81 0.90 1.02 1.07 1.06 1.11 1.12 1.07 1.11 1.21 1.31 1.43 1.58 1.73 1.83 1.91 1.94 1.95 1.95 1.98 1.95 1.82 1.78 1.82 1.89 1.90 1.87 1.87 1.88 1.82 1.75 1.66 1.53 1.45 1.48 1.50 1.49 1.51 1.51 1.52 1.55 1.68 1.85
0.82 0.92 1.02 1.13 1.12 1.06 1.03 1.02 0.98 1.04 1.15 1.25 1.35 1.47 1.56 1.67 1.78 1.77 1.73 1.73 1.75 1.69 1.63 1.65 1.64 1.62 1.61 1.65 1.71 1.67 1.62 1.60 1.51 1.42 1.35 1.29 1.32 1.43 1.48 1.55 1.60 1.65 1.76
0.77 0.85 0.91 0.95 0.99 0.99 1.02 1.05 0.99 0.99 1.01 1.13 1.24 1.29 1.35 1.43 1.55 1.59 1.60 1.57 1.58 1.60 1.56 1.57 1.59 1.53 1.48 1.47 1.49 1.50 1.50 1.52 1.51 1.48 1.46 1.40 1.36 1.43 1.49 1.57 1.61 1.58 1.56
0.73 0.76 0.83 0.84 0.84 0.88 0.94 1.00 1.00 0.99 0.97 1.01 1.15 1.27 1.29 1.25 1.35 1.43 1.40 1.40 1.42 1.51 1.53 1.48 1.49 1.48 1.46 1.45 1.43 1.42 1.44 1.44 1.45 1.49 1.52 1.50 1.52 1.52 1.47 1.44 1.43 1.39 1.34
0.73 0.73 0.75 0.76 0.77 0.79 0.80 0.82 0.86 0.89 0.94 1.00 1.05 1.13 1.21 1.21 1.20 1.29 1.27 1.26 1.29 1.36 1.43 1.40 1.36 1.39 1.43 1.45 1.44 1.46 1.51 1.54 1.53 1.53 1.54 1.52 1.53 1.48 1.44 1.40 1.32 1.27 1.26
0.63 0.66 0.69 0.69 0.68 0.71 0.70 0.70 0.72 0.82 0.91 0.99 1.03 1.03 1.08 1.14 1.16 1.20 1.25 1.22 1.26 1.29 1.33 1.35 1.32 1.33 1.41 1.48 1.50 1.48 1.52 1.61 1.64 1.60 1.53 1.47 1.53 1.51 1.43 1.35 1.31 1.31 1.36
0.58 0.61 0.62 0.60 0.61 0.66 0.70 0.69 0.70 0.76 0.83 0.94 1.01 0.99 0.95 0.99 1.10 1.20 1.25 1.27 1.26 1.30 1.35 1.40 1.42 1.42 1.45 1.73 1.78 1.66 1.59 1.61 1.59 1.53 1.45 1.39 1.43 1.39 1.42 1.41 1.37 1.41 1.47
0.52 0.54 0.56 0.57 0.60 0.65 0.67 0.67 0.71 0.77 0.77 0.86 0.96 0.98 0.98 1.01 1.05 1.15 1.26 1.34 1.35 1.37 1.46 1.54 1.58 1.60 1.65 1.77 1.67 1.64 1.48 1.44 1.42 1.34 1.26 1.19 1.15 1.18 1.05 1.16 1.27 1.28 1.37
0.47 0.46 0.48 0.50 0.50 0.55 0.59 0.64 0.67 0.71 0.72 0.75 0.85 0.92 0.96 1.07 1.15 1.21 1.24 1.30 1.38 1.47 1.58 1.67 1.68 1.64 1.66 1.63 1.44 1.41 1.28 1.19 1.14 1.09 1.05 1.02 0.97 0.97 1.01 1.01 1.08 1.02 0.98
0.48 0.49 0.48 0.51 0.49 0.48 0.54 0.60 0.66 0.71 0.74 0.77 0.85 0.94 0.97 1.03 1.13 1.27 1.31 1.33 1.37 1.45 1.51 1.54 1.49 1.38 1.32 1.32 1.18 1.09 1.00 1.02 0.97 0.90 0.90 0.91 0.86 1.01 1.18 1.14 1.08 0.94 0.85
0.41 0.47 0.46 0.46 0.48 0.50 0.55 0.62 0.69 0.78 0.87 0.94 1.00 1.08 1.14 1.15 1.13 1.19 1.26 1.27 1.21 1.17 1.11 1.06 1.03 0.96 0.88 0.94 0.97 0.97 0.84 0.85 0.85 0.83 0.83 0.95 0.94 1.09 1.22 1.12 1.09 0.98 0.82
0.36 0.44 0.47 0.51 0.53 0.58 0.64 0.75 0.82 0.95 1.03 1.08 1.09 1.15 1.19 1.19 1.15 1.05 0.96 0.92 0.87 0.82 0.80 0.76 0.73 0.71 0.72 0.75 0.79 0.90 0.89 0.85 0.81 0.78 0.77 0.79 0.99 1.10 1.17 1.11 0.97 1.00 1.04
0.35 0.44 0.50 0.54 0.57 0.64 0.70 0.77 0.86 0.94 0.94 0.98 0.98 0.97 0.92 0.83 0.79 0.78 0.74 0.74 0.74 0.69 0.67 0.69 0.71 0.69 0.69 0.75 0.78 0.86 0.93 0.97 0.89 0.78 0.69 0.73 0.94 1.01 1.04 0.99 1.00 1.11 1.07
0.29 0.34 0.41 0.44 0.46 0.50 0.58 0.67 0.70 0.69 0.69 0.69 0.69 0.68 0.66 0.61 0.61 0.64 0.67 0.69 0.72 0.72 0.68 0.66 0.69 0.70 0.68 0.72 0.84 0.89 0.94 0.99 0.94 0.84 0.83 0.83 0.86 0.84 0.86 0.93 0.97 0.96 0.88
0.25 0.30 0.33 0.36 0.38 0.39 0.46 0.56 0.57 0.55 0.58 0.60 0.61 0.62 0.63 0.61 0.61 0.62 0.65 0.70 0.74 0.75 0.73 0.71 0.69 0.68 0.68 0.70 0.75 0.84 0.94 0.98 0.98 0.99 0.98 0.93 0.87 0.84 0.83 0.85 0.83 0.80 0.83
0.28 0.33 0.38 0.40 0.41 0.40 0.42 0.46 0.49 0.51 0.58 0.58 0.59 0.62 0.65 0.67 0.64 0.66 0.70 0.75 0.78 0.84 0.89 0.84 0.77 0.75 0.74 0.73 0.88 0.92 0.91 0.96 1.05 1.11 1.03 0.97 0.91 0.89 0.86 0.83 0.80 0.81 0.87
0.31 0.34 0.40 0.44 0.46 0.46 0.47 0.48 0.51 0.54 0.62 0.65 0.65 0.69 0.73 0.73 0.73 0.73 0.74 0.81 0.84 0.89 0.92 0.88 0.83 0.76 0.75 0.80 0.86 0.90 0.93 1.01 1.11 1.14 1.03 0.92 0.84 0.80 0.79 0.80 0.79 0.78 0.82